When you browse on this site, cookies collect data to enhance your experience and personalize the content and advertising you see.
Visit our Privacy Policy to learn more. By continuing to use the site, you agree to this use of cookies and data.
  • In Latvia
  • List of Countries
  • For 7 days
  • Water Temperature
  • Weather Map
  • Weather Widgets
  • user-avatar
    Login

    Hourly Weather Manchester

    Today, 14 October, Monday

    Time Temperature Precipitation Wind Pressure Humidity
    00:00 +9°C° 0 mm 0 mps 755 mmHg 94%
    01:00 +9°C° 0 mm 0 mps 755 mmHg 93%
    02:00 +8°C° 0 mm 0 mps 754 mmHg 92%
    03:00 +8°C° 0 mm 0 mps 754 mmHg 90%
    04:00 +7°C° 0 mm 0 mps 754 mmHg 88%
    05:00 +8°C° 0 mm 0 mps 754 mmHg 86%
    06:00 +8°C° 0 mm 0 mps 754 mmHg 84%
    07:00 +9°C° 0 mm 0 mps 754 mmHg 81%
    08:00 +11°C° 0 mm 0 mps 754 mmHg 71%
    09:00 +15°C° 0 mm 1 mps 753 mmHg 61%
    10:00 +18°C° 0 mm 2 mps 753 mmHg 51%
    11:00 +19°C° 0 mm 2 mps 752 mmHg 52%
    12:00 +20°C° 0 mm 2 mps 752 mmHg 53%
    13:00 +21°C° 0 mm 3 mps 751 mmHg 53%
    14:00 +20°C° 0 mm 2 mps 751 mmHg 59%
    15:00 +20°C° 0 mm 2 mps 751 mmHg 64%
    16:00 +19°C° 0 mm 2 mps 751 mmHg 69%
    17:00 +17°C° 0 mm 2 mps 751 mmHg 73%
    18:00 +16°C° 0 mm 2 mps 752 mmHg 78%
    19:00 +14°C° 0 mm 2 mps 752 mmHg 82%
    20:00 +12°C° 0 mm 3 mps 753 mmHg 78%
    21:00 +12°C° 0 mm 3 mps 753 mmHg 74%
    22:00 +11°C° 0 mm 3 mps 754 mmHg 70%
    23:00 +10°C° 0 mm 3 mps 754 mmHg 71%

    Tomorrow, 15 October, Tuesday

    Time Temperature Precipitation Wind Pressure Humidity
    00:00 +9°C° 0 mm 3 mps 754 mmHg 73%
    01:00 +8°C° 0 mm 3 mps 754 mmHg 74%
    02:00 +8°C° 0 mm 3 mps 755 mmHg 75%
    03:00 +7°C° 0 mm 3 mps 755 mmHg 75%
    04:00 +6°C° 0 mm 2 mps 755 mmHg 76%
    05:00 +6°C° 0 mm 2 mps 756 mmHg 74%
    06:00 +6°C° 0 mm 2 mps 756 mmHg 73%
    07:00 +6°C° 0 mm 2 mps 757 mmHg 71%
    08:00 +8°C° 0 mm 2 mps 757 mmHg 62%
    09:00 +10°C° 0 mm 3 mps 757 mmHg 53%
    10:00 +12°C° 0 mm 3 mps 757 mmHg 44%
    11:00 +14°C° 0 mm 2 mps 756 mmHg 42%
    12:00 +15°C° 0 mm 2 mps 756 mmHg 40%
    13:00 +16°C° 0 mm 2 mps 756 mmHg 38%
    14:00 +15°C° 0 mm 2 mps 756 mmHg 42%
    15:00 +15°C° 0 mm 1 mps 755 mmHg 46%
    16:00 +15°C° 0 mm 1 mps 755 mmHg 51%
    17:00 +12°C° 0 mm 1 mps 755 mmHg 56%
    18:00 +10°C° 0 mm 1 mps 756 mmHg 60%
    19:00 +8°C° 0 mm 1 mps 756 mmHg 65%
    20:00 +7°C° 0 mm 0 mps 756 mmHg 68%
    21:00 +6°C° 0 mm 0 mps 756 mmHg 70%
    22:00 +6°C° 0 mm 0 mps 756 mmHg 72%
    23:00 +6°C° 0 mm 0 mps 756 mmHg 73%

    Day after tomorrow, 16 October, Wednesday

    Time Temperature Precipitation Wind Pressure Humidity
    00:00 +5°C° 0 mm 0 mps 756 mmHg 74%
    01:00 +5°C° 0 mm 0 mps 756 mmHg 74%
    02:00 +5°C° 0 mm 0 mps 756 mmHg 76%
    03:00 +4°C° 0 mm 0 mps 756 mmHg 79%
    04:00 +4°C° 0 mm 0 mps 755 mmHg 81%
    05:00 +5°C° 0 mm 0 mps 755 mmHg 80%
    06:00 +5°C° 0 mm 0 mps 755 mmHg 78%
    07:00 +6°C° 0 mm 0 mps 755 mmHg 77%
    08:00 +9°C° 0 mm 1 mps 755 mmHg 69%
    09:00 +12°C° 0 mm 2 mps 754 mmHg 62%
    10:00 +13°C° 0 mm 3 mps 753 mmHg 55%
    11:00 +14°C° 0 mm 3 mps 753 mmHg 53%
    12:00 +15°C° 0 mm 4 mps 752 mmHg 51%
    13:00 +17°C° 0 mm 4 mps 751 mmHg 50%
    14:00 +15°C° 0 mm 4 mps 750 mmHg 56%
    15:00 +14°C° 0 mm 4 mps 749 mmHg 62%
    16:00 +13°C° 0 mm 4 mps 748 mmHg 68%
    17:00 +12°C° 0.5 mm 4 mps 747 mmHg 77%
    18:00 +11°C° 0.5 mm 4 mps 746 mmHg 87%
    19:00 +10°C° 0.5 mm 4 mps 745 mmHg 96%
    20:00 +9°C° 3.3 mm 5 mps 743 mmHg 96%
    21:00 +10°C° 3.3 mm 5 mps 742 mmHg 96%
    22:00 +10°C° 3.3 mm 6 mps 740 mmHg 96%
    23:00 +10°C° 3 mm 6 mps 739 mmHg 96%

    17 October, Thursday

    Time Temperature Precipitation Wind Pressure Humidity
    00:00 +10°C° 3 mm 6 mps 737 mmHg 96%
    01:00 +10°C° 3 mm 6 mps 735 mmHg 97%
    02:00 +10°C° 2.6 mm 5 mps 735 mmHg 97%
    03:00 +11°C° 2.6 mm 4 mps 734 mmHg 97%
    04:00 +11°C° 2.6 mm 3 mps 733 mmHg 97%
    05:00 +11°C° 1.9 mm 4 mps 733 mmHg 96%
    06:00 +9°C° 1.9 mm 5 mps 733 mmHg 95%
    07:00 +8°C° 1.9 mm 6 mps 733 mmHg 94%
    08:00 +9°C° 1 mm 5 mps 733 mmHg 92%
    09:00 +9°C° 1 mm 5 mps 734 mmHg 90%
    10:00 +9°C° 1 mm 5 mps 734 mmHg 87%
    11:00 +9°C° 0 mm 5 mps 735 mmHg 84%
    12:00 +11°C° 0 mm 4 mps 735 mmHg 80%
    13:00 +11°C° 0 mm 4 mps 736 mmHg 76%
    14:00 +11°C° 0 mm 4 mps 736 mmHg 78%
    15:00 +11°C° 0 mm 4 mps 737 mmHg 79%
    16:00 +11°C° 0 mm 4 mps 737 mmHg 80%
    17:00 +10°C° 0 mm 4 mps 738 mmHg 79%
    18:00 +8°C° 0 mm 4 mps 739 mmHg 78%
    19:00 +8°C° 0 mm 4 mps 740 mmHg 77%
    20:00 +7°C° 0 mm 4 mps 741 mmHg 77%
    21:00 +7°C° 0 mm 4 mps 741 mmHg 77%
    22:00 +8°C° 0 mm 3 mps 742 mmHg 78%
    23:00 +8°C° 0 mm 3 mps 743 mmHg 78%

    18 October, Friday

    Time Temperature Precipitation Wind Pressure Humidity
    00:00 +7°C° 0 mm 3 mps 743 mmHg 79%
    01:00 +7°C° 0 mm 3 mps 744 mmHg 80%
    02:00 +7°C° 0 mm 3 mps 745 mmHg 80%
    03:00 +7°C° 0 mm 3 mps 746 mmHg 80%
    04:00 +6°C° 0 mm 4 mps 746 mmHg 80%
    05:00 +7°C° 0 mm 3 mps 747 mmHg 79%
    06:00 +7°C° 0 mm 3 mps 748 mmHg 79%
    07:00 +8°C° 0 mm 3 mps 748 mmHg 79%
    08:00 +8°C° 0 mm 4 mps 749 mmHg 71%
    09:00 +10°C° 0 mm 5 mps 749 mmHg 63%
    10:00 +11°C° 0 mm 6 mps 749 mmHg 55%
    11:00 +12°C° 0 mm 5 mps 750 mmHg 56%
    12:00 +12°C° 0 mm 5 mps 750 mmHg 58%
    13:00 +12°C° 0 mm 5 mps 750 mmHg 59%
    14:00 +12°C° 0 mm 4 mps 750 mmHg 59%
    15:00 +12°C° 0 mm 4 mps 751 mmHg 59%
    16:00 +12°C° 0 mm 3 mps 751 mmHg 59%
    17:00 +10°C° 0 mm 3 mps 752 mmHg 65%
    18:00 +9°C° 0 mm 3 mps 752 mmHg 71%
    19:00 +7°C° 0 mm 2 mps 753 mmHg 77%
    20:00 +6°C° 0 mm 2 mps 753 mmHg 79%
    21:00 +6°C° 0 mm 2 mps 754 mmHg 80%
    22:00 +5°C° 0 mm 2 mps 754 mmHg 82%
    23:00 +5°C° 0 mm 2 mps 755 mmHg 83%

    19 October, Saturday

    Time Temperature Precipitation Wind Pressure Humidity
    00:00 +5°C° 0 mm 2 mps 755 mmHg 83%
    01:00 +4°C° 0 mm 2 mps 755 mmHg 84%
    02:00 +4°C° 0 mm 2 mps 755 mmHg 86%
    03:00 +4°C° 0 mm 1 mps 756 mmHg 88%
    04:00 +4°C° 0 mm 1 mps 756 mmHg 90%
    05:00 +4°C° 0 mm 1 mps 756 mmHg 88%
    06:00 +5°C° 0 mm 1 mps 756 mmHg 86%
    07:00 +5°C° 0 mm 1 mps 757 mmHg 84%
    08:00 +8°C° 0 mm 1 mps 757 mmHg 73%
    09:00 +11°C° 0 mm 1 mps 757 mmHg 62%
    10:00 +12°C° 0 mm 0 mps 757 mmHg 51%
    11:00 +14°C° 0 mm 1 mps 757 mmHg 48%
    12:00 +15°C° 0 mm 1 mps 756 mmHg 45%
    13:00 +18°C° 0 mm 1 mps 756 mmHg 42%
    14:00 +16°C° 0 mm 1 mps 756 mmHg 48%
    15:00 +15°C° 0 mm 1 mps 756 mmHg 53%
    16:00 +14°C° 0 mm 1 mps 756 mmHg 59%
    17:00 +12°C° 0 mm 1 mps 756 mmHg 65%
    18:00 +10°C° 0 mm 1 mps 756 mmHg 70%
    19:00 +8°C° 0 mm 1 mps 756 mmHg 76%
    20:00 +8°C° 0 mm 1 mps 756 mmHg 78%
    21:00 +8°C° 0 mm 1 mps 756 mmHg 79%
    22:00 +8°C° 0 mm 1 mps 756 mmHg 81%
    23:00 +8°C° 0 mm 1 mps 756 mmHg 83%
    Show more